owner,sensor,date,latitude,longitude,vertical_datum,wind_speed,wind_to_direction,wind_speed_of_gust,qcFlag 
TCOON,ioos:station:TCOON:005:1,2012-07-01T00:00:00Z,27.6346,-97.2370,0.0,6.5,91.0,7.6,'11111222,11111222,11111222' 
TCOON,ioos:station:TCOON:005:1,2012-07-01T01:00:00Z,27.6346,-97.2370,0.0,5.2,108.0,7.2,'11111222,11111222,11111222' 
TCOON,ioos:station:TCOON:005:1,2012-07-01T02:00:00Z,27.6346,-97.2370,0.0,4.5,121.0,6.0,'11111222,11111222,11111222' 
TCOON,ioos:station:TCOON:005:1,2012-07-01T03:00:00Z,27.6346,-97.2370,0.0,4.3,130.0,5.7,'11111222,11111222,11111222' 
TCOON,ioos:station:TCOON:005:1,2012-07-01T04:00:00Z,27.6346,-97.2370,0.0,6.1,133.0,8.9,'11111222,11111222,11111222' 
TCOON,ioos:station:TCOON:005:1,2012-07-01T05:00:00Z,27.6346,-97.2370,0.0,6.0,192.0,8.9,'11111222,11111222,11111222' 
TCOON,ioos:station:TCOON:005:1,2012-07-01T06:00:00Z,27.6346,-97.2370,0.0,4.3,172.0,6.3,'11111222,11111222,11111222' 
TCOON,ioos:station:TCOON:005:1,2012-07-01T07:00:00Z,27.6346,-97.2370,0.0,2.5,221.0,3.4,'11111222,11111222,11111222' 
TCOON,ioos:station:TCOON:005:1,2012-07-01T08:00:00Z,27.6346,-97.2370,0.0,3.4,225.0,4.1,'11111222,11111222,11111222' 
TCOON,ioos:station:TCOON:005:1,2012-07-01T09:00:00Z,27.6346,-97.2370,0.0,4.9,197.0,6.0,'11111222,11111222,11111222' 
TCOON,ioos:station:TCOON:005:1,2012-07-01T10:00:00Z,27.6346,-97.2370,0.0,3.5,219.0,4.0,'11111222,11111222,11111222' 
TCOON,ioos:station:TCOON:005:1,2012-07-01T11:00:00Z,27.6346,-97.2370,0.0,2.6,258.0,3.0,'11111222,11111222,11111222' 
TCOON,ioos:station:TCOON:005:1,2012-07-01T12:00:00Z,27.6346,-97.2370,0.0,2.6,343.0,3.1,'11111222,11111222,11111222' 
TCOON,ioos:station:TCOON:005:1,2012-07-01T13:00:00Z,27.6346,-97.2370,0.0,2.2,340.0,2.6,'11111222,11111222,11111222' 
TCOON,ioos:station:TCOON:005:1,2012-07-01T14:00:00Z,27.6346,-97.2370,0.0,5.8,87.0,8.6,'11111222,11111222,11111222' 
TCOON,ioos:station:TCOON:005:1,2012-07-01T15:00:00Z,27.6346,-97.2370,0.0,5.5,107.0,7.2,'11111222,11111222,11111222' 
TCOON,ioos:station:TCOON:005:1,2012-07-01T16:00:00Z,27.6346,-97.2370,0.0,5.0,129.0,5.7,'11111222,11111222,11111222' 
TCOON,ioos:station:TCOON:005:1,2012-07-01T17:00:00Z,27.6346,-97.2370,0.0,6.5,130.0,9.2,'11111222,11111222,11111222' 
TCOON,ioos:station:TCOON:005:1,2012-07-01T18:00:00Z,27.6346,-97.2370,0.0,7.2,137.0,9.4,'11111222,11111222,11111222' 
TCOON,ioos:station:TCOON:005:1,2012-07-01T19:00:00Z,27.6346,-97.2370,0.0,7.1,130.0,8.1,'11111222,11111222,11111222' 
TCOON,ioos:station:TCOON:005:1,2012-07-01T20:00:00Z,27.6346,-97.2370,0.0,6.8,123.0,9.1,'11111222,11111222,11111222' 
TCOON,ioos:station:TCOON:005:1,2012-07-01T21:00:00Z,27.6346,-97.2370,0.0,6.4,121.0,8.3,'11111222,11111222,11111222' 
TCOON,ioos:station:TCOON:005:1,2012-07-01T22:00:00Z,27.6346,-97.2370,0.0,9.4,121.0,11.3,'11111222,11111222,11111222' 
TCOON,ioos:station:TCOON:005:1,2012-07-01T23:00:00Z,27.6346,-97.2370,0.0,9.1,112.0,11.4,'11111222,11111222,11111222' 
TCOON,ioos:station:TCOON:005:1,2012-07-02T00:00:00Z,27.6346,-97.2370,0.0,9.5,128.0,11.4,'11111222,11111222,11111222' 
TCOON,ioos:station:TCOON:005:1,2012-07-02T01:00:00Z,27.6346,-97.2370,0.0,7.9,123.0,9.6,'11111222,11111222,11111222' 
TCOON,ioos:station:TCOON:005:1,2012-07-02T02:00:00Z,27.6346,-97.2370,0.0,7.5,128.0,9.6,'11111222,11111222,11111222' 
TCOON,ioos:station:TCOON:005:1,2012-07-02T03:00:00Z,27.6346,-97.2370,0.0,6.3,132.0,8.9,'11111222,11111222,11111222' 
TCOON,ioos:station:TCOON:005:1,2012-07-02T04:00:00Z,27.6346,-97.2370,0.0,5.0,137.0,8.3,'11111222,11111222,11111222' 
TCOON,ioos:station:TCOON:005:1,2012-07-02T05:00:00Z,27.6346,-97.2370,0.0,5.7,143.0,8.3,'11111222,11111222,11111222' 
TCOON,ioos:station:TCOON:005:1,2012-07-02T06:00:00Z,27.6346,-97.2370,0.0,5.0,140.0,8.2,'11111222,11111222,11111222' 
TCOON,ioos:station:TCOON:005:1,2012-07-02T07:00:00Z,27.6346,-97.2370,0.0,6.6,142.0,8.4,'11111222,11111222,11111222' 
TCOON,ioos:station:TCOON:005:1,2012-07-02T08:00:00Z,27.6346,-97.2370,0.0,6.1,144.0,8.3,'11111222,11111222,11111222' 
TCOON,ioos:station:TCOON:005:1,2012-07-02T09:00:00Z,27.6346,-97.2370,0.0,5.5,149.0,7.6,'11111222,11111222,11111222' 
TCOON,ioos:station:TCOON:005:1,2012-07-02T10:00:00Z,27.6346,-97.2370,0.0,6.1,145.0,7.5,'11111222,11111222,11111222' 
TCOON,ioos:station:TCOON:005:1,2012-07-02T11:00:00Z,27.6346,-97.2370,0.0,4.4,146.0,8.0,'11111222,11111222,11111222' 
TCOON,ioos:station:TCOON:005:1,2012-07-02T12:00:00Z,27.6346,-97.2370,0.0,4.9,148.0,8.1,'11111222,11111222,11111222' 
TCOON,ioos:station:TCOON:005:1,2012-07-02T13:00:00Z,27.6346,-97.2370,0.0,6.8,137.0,9.3,'11111222,11111222,11111222' 
TCOON,ioos:station:TCOON:005:1,2012-07-02T14:00:00Z,27.6346,-97.2370,0.0,6.8,137.0,10.3,'11111222,11111222,11111222' 
TCOON,ioos:station:TCOON:005:1,2012-07-02T15:00:00Z,27.6346,-97.2370,0.0,6.8,133.0,8.9,'11111222,11111222,11111222' 
TCOON,ioos:station:TCOON:005:1,2012-07-02T16:00:00Z,27.6346,-97.2370,0.0,7.2,126.0,9.3,'11111222,11111222,11111222' 
TCOON,ioos:station:TCOON:005:1,2012-07-02T17:00:00Z,27.6346,-97.2370,0.0,7.9,131.0,10.2,'11111222,11111222,11111222' 
TCOON,ioos:station:TCOON:005:1,2012-07-02T18:00:00Z,27.6346,-97.2370,0.0,6.9,128.0,11.0,'11111222,11111222,11111222' 
TCOON,ioos:station:TCOON:005:1,2012-07-02T19:00:00Z,27.6346,-97.2370,0.0,7.1,134.0,9.8,'11111222,11111222,11111222' 
TCOON,ioos:station:TCOON:005:1,2012-07-02T20:00:00Z,27.6346,-97.2370,0.0,8.2,121.0,10.3,'11111222,11111222,11111222' 
TCOON,ioos:station:TCOON:005:1,2012-07-02T21:00:00Z,27.6346,-97.2370,0.0,6.6,132.0,9.7,'11111222,11111222,11111222' 
TCOON,ioos:station:TCOON:005:1,2012-07-02T22:00:00Z,27.6346,-97.2370,0.0,7.6,135.0,9.3,'11111222,11111222,11111222' 
TCOON,ioos:station:TCOON:005:1,2012-07-02T23:00:00Z,27.6346,-97.2370,0.0,8.2,126.0,10.6,'11111222,11111222,11111222' 
TCOON,ioos:station:TCOON:005:1,2012-07-03T00:00:00Z,27.6346,-97.2370,0.0,8.2,116.0,10.3,'11111222,11111222,11111222' 
TCOON,ioos:station:TCOON:005:1,2012-07-03T01:00:00Z,27.6346,-97.2370,0.0,7.3,119.0,9.7,'11111222,11111222,11111222' 
TCOON,ioos:station:TCOON:005:1,2012-07-03T02:00:00Z,27.6346,-97.2370,0.0,5.9,134.0,8.3,'11111222,11111222,11111222' 
TCOON,ioos:station:TCOON:005:1,2012-07-03T03:00:00Z,27.6346,-97.2370,0.0,5.5,123.0,7.9,'11111222,11111222,11111222' 
TCOON,ioos:station:TCOON:005:1,2012-07-03T04:00:00Z,27.6346,-97.2370,0.0,5.9,126.0,8.2,'11111222,11111222,11111222' 
TCOON,ioos:station:TCOON:005:1,2012-07-03T05:00:00Z,27.6346,-97.2370,0.0,6.1,131.0,8.1,'11111222,11111222,11111222' 
TCOON,ioos:station:TCOON:005:1,2012-07-03T06:00:00Z,27.6346,-97.2370,0.0,5.4,139.0,8.4,'11111222,11111222,11111222' 
TCOON,ioos:station:TCOON:005:1,2012-07-03T07:00:00Z,27.6346,-97.2370,0.0,4.8,138.0,7.2,'11111222,11111222,11111222' 
TCOON,ioos:station:TCOON:005:1,2012-07-03T08:00:00Z,27.6346,-97.2370,0.0,5.9,143.0,8.6,'11111222,11111222,11111222' 
TCOON,ioos:station:TCOON:005:1,2012-07-03T09:00:00Z,27.6346,-97.2370,0.0,5.0,150.0,6.6,'11111222,11111222,11111222' 
TCOON,ioos:station:TCOON:005:1,2012-07-03T10:00:00Z,27.6346,-97.2370,0.0,3.4,158.0,6.7,'11111222,11111222,11111222' 
TCOON,ioos:station:TCOON:005:1,2012-07-03T11:00:00Z,27.6346,-97.2370,0.0,4.7,148.0,6.5,'11111222,11111222,11111222' 
TCOON,ioos:station:TCOON:005:1,2012-07-03T12:00:00Z,27.6346,-97.2370,0.0,5.0,141.0,6.4,'11111222,11111222,11111222' 
TCOON,ioos:station:TCOON:005:1,2012-07-03T13:00:00Z,27.6346,-97.2370,0.0,3.9,133.0,5.0,'11111222,11111222,11111222' 
TCOON,ioos:station:TCOON:005:1,2012-07-03T14:00:00Z,27.6346,-97.2370,0.0,4.7,140.0,7.1,'11111222,11111222,11111222' 
TCOON,ioos:station:TCOON:005:1,2012-07-03T15:00:00Z,27.6346,-97.2370,0.0,4.5,134.0,7.4,'11111222,11111222,11111222' 
TCOON,ioos:station:TCOON:005:1,2012-07-03T16:00:00Z,27.6346,-97.2370,0.0,5.3,147.0,8.7,'11111222,11111222,11111222' 
TCOON,ioos:station:TCOON:005:1,2012-07-03T17:00:00Z,27.6346,-97.2370,0.0,5.8,130.0,8.0,'11111222,11111222,11111222' 
TCOON,ioos:station:TCOON:005:1,2012-07-03T18:00:00Z,27.6346,-97.2370,0.0,6.4,127.0,9.2,'11111222,11111222,11111222' 
TCOON,ioos:station:TCOON:005:1,2012-07-03T19:00:00Z,27.6346,-97.2370,0.0,7.5,120.0,9.4,'11111222,11111222,11111222' 
TCOON,ioos:station:TCOON:005:1,2012-07-03T20:00:00Z,27.6346,-97.2370,0.0,7.3,124.0,10.5,'11111222,11111222,11111222' 
TCOON,ioos:station:TCOON:005:1,2012-07-03T21:00:00Z,27.6346,-97.2370,0.0,7.6,125.0,10.0,'11111222,11111222,11111222' 
TCOON,ioos:station:TCOON:005:1,2012-07-03T22:00:00Z,27.6346,-97.2370,0.0,7.0,130.0,8.8,'11111222,11111222,11111222' 
TCOON,ioos:station:TCOON:005:1,2012-07-03T23:00:00Z,27.6346,-97.2370,0.0,7.3,132.0,11.5,'11111222,11111222,11111222' 
TCOON,ioos:station:TCOON:005:1,2012-07-04T01:00:00Z,27.6346,-97.2370,0.0,6.7,138.0,9.3,'11111222,11111222,11111222' 
TCOON,ioos:station:TCOON:005:1,2012-07-04T03:00:00Z,27.6346,-97.2370,0.0,5.9,148.0,8.4,'11111222,11111222,11111222' 
TCOON,ioos:station:TCOON:005:1,2012-07-04T04:00:00Z,27.6346,-97.2370,0.0,6.3,139.0,8.6,'11111222,11111222,11111222' 
TCOON,ioos:station:TCOON:005:1,2012-07-04T05:00:00Z,27.6346,-97.2370,0.0,6.8,145.0,8.3,'11111222,11111222,11111222' 
TCOON,ioos:station:TCOON:005:1,2012-07-04T06:00:00Z,27.6346,-97.2370,0.0,5.8,144.0,9.1,'11111222,11111222,11111222' 
TCOON,ioos:station:TCOON:005:1,2012-07-04T07:00:00Z,27.6346,-97.2370,0.0,5.7,143.0,8.2,'11111222,11111222,11111222' 
TCOON,ioos:station:TCOON:005:1,2012-07-04T08:00:00Z,27.6346,-97.2370,0.0,6.5,143.0,9.7,'11111222,11111222,11111222' 
TCOON,ioos:station:TCOON:005:1,2012-07-04T09:00:00Z,27.6346,-97.2370,0.0,5.3,151.0,7.3,'11111222,11111222,11111222' 
TCOON,ioos:station:TCOON:005:1,2012-07-04T10:00:00Z,27.6346,-97.2370,0.0,6.1,147.0,7.8,'11111222,11111222,11111222' 
TCOON,ioos:station:TCOON:005:1,2012-07-04T11:00:00Z,27.6346,-97.2370,0.0,6.0,148.0,7.8,'11111222,11111222,11111222' 
TCOON,ioos:station:TCOON:005:1,2012-07-04T12:00:00Z,27.6346,-97.2370,0.0,4.7,152.0,6.5,'11111222,11111222,11111222' 
TCOON,ioos:station:TCOON:005:1,2012-07-04T13:00:00Z,27.6346,-97.2370,0.0,6.1,151.0,7.6,'11111222,11111222,11111222' 
TCOON,ioos:station:TCOON:005:1,2012-07-04T14:00:00Z,27.6346,-97.2370,0.0,6.6,149.0,8.6,'11111222,11111222,11111222' 
TCOON,ioos:station:TCOON:005:1,2012-07-04T15:00:00Z,27.6346,-97.2370,0.0,6.1,148.0,8.3,'11111222,11111222,11111222' 
TCOON,ioos:station:TCOON:005:1,2012-07-04T16:00:00Z,27.6346,-97.2370,0.0,6.2,137.0,7.9,'11111222,11111222,11111222' 
TCOON,ioos:station:TCOON:005:1,2012-07-04T17:00:00Z,27.6346,-97.2370,0.0,6.7,126.0,8.7,'11111222,11111222,11111222' 
TCOON,ioos:station:TCOON:005:1,2012-07-04T18:00:00Z,27.6346,-97.2370,0.0,7.7,128.0,9.2,'11111222,11111222,11111222' 
TCOON,ioos:station:TCOON:005:1,2012-07-04T19:00:00Z,27.6346,-97.2370,0.0,7.7,126.0,9.9,'11111222,11111222,11111222' 
TCOON,ioos:station:TCOON:005:1,2012-07-04T20:00:00Z,27.6346,-97.2370,0.0,8.4,131.0,9.8,'11111222,11111222,11111222' 
TCOON,ioos:station:TCOON:005:1,2012-07-04T21:00:00Z,27.6346,-97.2370,0.0,8.0,132.0,11.5,'11111222,11111222,11111222' 
TCOON,ioos:station:TCOON:005:1,2012-07-04T22:00:00Z,27.6346,-97.2370,0.0,9.5,141.0,11.4,'11111222,11111222,11111222' 
TCOON,ioos:station:TCOON:005:1,2012-07-04T23:00:00Z,27.6346,-97.2370,0.0,8.6,125.0,10.7,'11111222,11111222,11111222' 
TCOON,ioos:station:TCOON:005:1,2012-07-05T00:00:00Z,27.6346,-97.2370,0.0,6.2,139.0,9.6,'11111222,11111222,11111222' 
TCOON,ioos:station:TCOON:005:1,2012-07-05T01:00:00Z,27.6346,-97.2370,0.0,6.2,140.0,9.0,'11111222,11111222,11111222' 
TCOON,ioos:station:TCOON:005:1,2012-07-05T02:00:00Z,27.6346,-97.2370,0.0,6.3,144.0,8.2,'11111222,11111222,11111222' 
TCOON,ioos:station:TCOON:005:1,2012-07-05T03:00:00Z,27.6346,-97.2370,0.0,5.2,134.0,7.7,'11111222,11111222,11111222' 
TCOON,ioos:station:TCOON:005:1,2012-07-05T04:00:00Z,27.6346,-97.2370,0.0,4.6,137.0,7.6,'11111222,11111222,11111222' 
TCOON,ioos:station:TCOON:005:1,2012-07-05T05:00:00Z,27.6346,-97.2370,0.0,5.1,133.0,6.5,'11111222,11111222,11111222' 
TCOON,ioos:station:TCOON:005:1,2012-07-05T06:00:00Z,27.6346,-97.2370,0.0,5.4,141.0,8.0,'11111222,11111222,11111222' 
TCOON,ioos:station:TCOON:005:1,2012-07-05T07:00:00Z,27.6346,-97.2370,0.0,5.4,147.0,7.2,'11111222,11111222,11111222' 
TCOON,ioos:station:TCOON:005:1,2012-07-05T08:00:00Z,27.6346,-97.2370,0.0,4.6,149.0,7.7,'11111222,11111222,11111222' 
TCOON,ioos:station:TCOON:005:1,2012-07-05T09:00:00Z,27.6346,-97.2370,0.0,5.2,156.0,7.2,'11111222,11111222,11111222' 
TCOON,ioos:station:TCOON:005:1,2012-07-05T10:00:00Z,27.6346,-97.2370,0.0,4.5,155.0,6.0,'11111222,11111222,11111222' 
TCOON,ioos:station:TCOON:005:1,2012-07-05T11:00:00Z,27.6346,-97.2370,0.0,5.1,144.0,6.8,'11111222,11111222,11111222' 
TCOON,ioos:station:TCOON:005:1,2012-07-05T12:00:00Z,27.6346,-97.2370,0.0,5.2,153.0,6.0,'11111222,11111222,11111222' 
TCOON,ioos:station:TCOON:005:1,2012-07-05T13:00:00Z,27.6346,-97.2370,0.0,5.2,148.0,6.6,'11111222,11111222,11111222' 
TCOON,ioos:station:TCOON:005:1,2012-07-05T14:00:00Z,27.6346,-97.2370,0.0,4.5,149.0,7.7,'11111222,11111222,11111222' 
TCOON,ioos:station:TCOON:005:1,2012-07-05T15:00:00Z,27.6346,-97.2370,0.0,7.0,133.0,8.2,'11111222,11111222,11111222' 
TCOON,ioos:station:TCOON:005:1,2012-07-05T16:00:00Z,27.6346,-97.2370,0.0,6.0,144.0,7.4,'11111222,11111222,11111222' 
TCOON,ioos:station:TCOON:005:1,2012-07-05T17:00:00Z,27.6346,-97.2370,0.0,5.7,146.0,8.3,'11111222,11111222,11111222' 
TCOON,ioos:station:TCOON:005:1,2012-07-05T18:00:00Z,27.6346,-97.2370,0.0,7.5,126.0,8.9,'11111222,11111222,11111222' 
TCOON,ioos:station:TCOON:005:1,2012-07-05T19:00:00Z,27.6346,-97.2370,0.0,6.1,126.0,9.8,'11111222,11111222,11111222' 
TCOON,ioos:station:TCOON:005:1,2012-07-05T20:00:00Z,27.6346,-97.2370,0.0,7.1,125.0,9.4,'11111222,11111222,11111222' 
TCOON,ioos:station:TCOON:005:1,2012-07-05T21:00:00Z,27.6346,-97.2370,0.0,7.0,122.0,10.3,'11111222,11111222,11111222' 
TCOON,ioos:station:TCOON:005:1,2012-07-05T22:00:00Z,27.6346,-97.2370,0.0,6.9,131.0,10.1,'11111222,11111222,11111222' 
TCOON,ioos:station:TCOON:005:1,2012-07-05T23:00:00Z,27.6346,-97.2370,0.0,9.1,121.0,10.9,'11111222,11111222,11111222' 
TCOON,ioos:station:TCOON:005:1,2012-07-06T00:00:00Z,27.6346,-97.2370,0.0,7.6,128.0,9.8,'11111222,11111222,11111222' 
TCOON,ioos:station:TCOON:005:1,2012-07-06T01:00:00Z,27.6346,-97.2370,0.0,6.0,130.0,8.8,'11111222,11111222,11111222' 
TCOON,ioos:station:TCOON:005:1,2012-07-06T02:00:00Z,27.6346,-97.2370,0.0,6.0,131.0,7.6,'11111222,11111222,11111222' 
TCOON,ioos:station:TCOON:005:1,2012-07-06T03:00:00Z,27.6346,-97.2370,0.0,6.1,126.0,8.1,'11111222,11111222,11111222' 
TCOON,ioos:station:TCOON:005:1,2012-07-06T04:00:00Z,27.6346,-97.2370,0.0,5.5,137.0,6.9,'11111222,11111222,11111222' 
TCOON,ioos:station:TCOON:005:1,2012-07-06T05:00:00Z,27.6346,-97.2370,0.0,4.5,147.0,6.2,'11111222,11111222,11111222' 
TCOON,ioos:station:TCOON:005:1,2012-07-06T06:00:00Z,27.6346,-97.2370,0.0,5.0,138.0,5.7,'11111222,11111222,11111222' 
TCOON,ioos:station:TCOON:005:1,2012-07-06T07:00:00Z,27.6346,-97.2370,0.0,5.1,138.0,6.3,'11111222,11111222,11111222' 
TCOON,ioos:station:TCOON:005:1,2012-07-06T08:00:00Z,27.6346,-97.2370,0.0,4.0,155.0,6.1,'11111222,11111222,11111222' 
TCOON,ioos:station:TCOON:005:1,2012-07-06T09:00:00Z,27.6346,-97.2370,0.0,4.4,147.0,6.2,'11111222,11111222,11111222' 
TCOON,ioos:station:TCOON:005:1,2012-07-06T10:00:00Z,27.6346,-97.2370,0.0,2.4,158.0,4.0,'11111222,11111222,11111222' 
TCOON,ioos:station:TCOON:005:1,2012-07-06T11:00:00Z,27.6346,-97.2370,0.0,2.2,155.0,2.8,'11111222,11111222,11111222' 
TCOON,ioos:station:TCOON:005:1,2012-07-06T12:00:00Z,27.6346,-97.2370,0.0,1.4,152.0,2.0,'11111222,11111222,11111222' 
TCOON,ioos:station:TCOON:005:1,2012-07-06T13:00:00Z,27.6346,-97.2370,0.0,1.7,153.0,2.2,'11111222,11111222,11111222' 
TCOON,ioos:station:TCOON:005:1,2012-07-06T14:00:00Z,27.6346,-97.2370,0.0,3.0,129.0,4.8,'11111222,11111222,11111222' 
TCOON,ioos:station:TCOON:005:1,2012-07-06T15:00:00Z,27.6346,-97.2370,0.0,3.5,153.0,5.0,'11111222,11111222,11111222' 
TCOON,ioos:station:TCOON:005:1,2012-07-06T16:00:00Z,27.6346,-97.2370,0.0,3.7,132.0,5.4,'11111222,11111222,11111222' 
TCOON,ioos:station:TCOON:005:1,2012-07-06T17:00:00Z,27.6346,-97.2370,0.0,4.1,132.0,5.2,'11111222,11111222,11111222' 
TCOON,ioos:station:TCOON:005:1,2012-07-06T18:00:00Z,27.6346,-97.2370,0.0,4.9,115.0,7.4,'11111222,11111222,11111222' 
TCOON,ioos:station:TCOON:005:1,2012-07-06T19:00:00Z,27.6346,-97.2370,0.0,6.4,112.0,7.6,'11111222,11111222,11111222' 
TCOON,ioos:station:TCOON:005:1,2012-07-06T20:00:00Z,27.6346,-97.2370,0.0,6.4,124.0,7.9,'11111222,11111222,11111222' 
TCOON,ioos:station:TCOON:005:1,2012-07-06T21:00:00Z,27.6346,-97.2370,0.0,7.3,114.0,9.4,'11111222,11111222,11111222' 
TCOON,ioos:station:TCOON:005:1,2012-07-06T22:00:00Z,27.6346,-97.2370,0.0,7.2,106.0,9.1,'11111222,11111222,11111222' 
TCOON,ioos:station:TCOON:005:1,2012-07-06T23:00:00Z,27.6346,-97.2370,0.0,7.1,122.0,8.8,'11111222,11111222,11111222' 
TCOON,ioos:station:TCOON:005:1,2012-07-07T00:00:00Z,27.6346,-97.2370,0.0,7.3,119.0,8.6,'11111222,11111222,11111222' 
TCOON,ioos:station:TCOON:005:1,2012-07-07T01:00:00Z,27.6346,-97.2370,0.0,6.3,141.0,7.8,'11111222,11111222,11111222' 
TCOON,ioos:station:TCOON:005:1,2012-07-07T02:00:00Z,27.6346,-97.2370,0.0,4.3,130.0,7.1,'11111222,11111222,11111222' 
TCOON,ioos:station:TCOON:005:1,2012-07-07T03:00:00Z,27.6346,-97.2370,0.0,5.6,141.0,6.5,'11111222,11111222,11111222' 
TCOON,ioos:station:TCOON:005:1,2012-07-07T04:00:00Z,27.6346,-97.2370,0.0,4.7,142.0,7.1,'11111222,11111222,11111222' 
TCOON,ioos:station:TCOON:005:1,2012-07-07T05:00:00Z,27.6346,-97.2370,0.0,4.5,153.0,6.2,'11111222,11111222,11111222' 
TCOON,ioos:station:TCOON:005:1,2012-07-07T06:00:00Z,27.6346,-97.2370,0.0,4.5,152.0,6.1,'11111222,11111222,11111222' 
TCOON,ioos:station:TCOON:005:1,2012-07-07T07:00:00Z,27.6346,-97.2370,0.0,3.6,156.0,5.8,'11111222,11111222,11111222' 
TCOON,ioos:station:TCOON:005:1,2012-07-07T08:00:00Z,27.6346,-97.2370,0.0,3.2,178.0,4.0,'11111222,11111222,11111222' 
TCOON,ioos:station:TCOON:005:1,2012-07-07T09:00:00Z,27.6346,-97.2370,0.0,2.6,176.0,3.1,'11111222,11111222,11111222' 
TCOON,ioos:station:TCOON:005:1,2012-07-07T10:00:00Z,27.6346,-97.2370,0.0,1.8,169.0,2.6,'11111222,11111222,11111222' 
TCOON,ioos:station:TCOON:005:1,2012-07-07T11:00:00Z,27.6346,-97.2370,0.0,1.7,207.0,2.4,'11111222,11111222,11111222' 
TCOON,ioos:station:TCOON:005:1,2012-07-07T12:00:00Z,27.6346,-97.2370,0.0,2.1,222.0,2.6,'11111222,11111222,11111222' 
TCOON,ioos:station:TCOON:005:1,2012-07-07T13:00:00Z,27.6346,-97.2370,0.0,1.0,215.0,1.8,'11111222,11111222,11111222' 
TCOON,ioos:station:TCOON:005:1,2012-07-07T14:00:00Z,27.6346,-97.2370,0.0,1.7,265.0,2.4,'11111222,11111222,11111222' 
TCOON,ioos:station:TCOON:005:1,2012-07-07T15:00:00Z,27.6346,-97.2370,0.0,0.3,287.0,1.2,'11111222,11111222,11111222' 
TCOON,ioos:station:TCOON:005:1,2012-07-07T16:00:00Z,27.6346,-97.2370,0.0,2.6,143.0,3.9,'11111222,11111222,11111222' 
TCOON,ioos:station:TCOON:005:1,2012-07-07T17:00:00Z,27.6346,-97.2370,0.0,3.5,104.0,5.8,'11111222,11111222,11111222' 
TCOON,ioos:station:TCOON:005:1,2012-07-07T18:00:00Z,27.6346,-97.2370,0.0,4.4,118.0,6.0,'11111222,11111222,11111222' 
TCOON,ioos:station:TCOON:005:1,2012-07-07T19:00:00Z,27.6346,-97.2370,0.0,5.8,110.0,7.7,'11111222,11111222,11111222' 
TCOON,ioos:station:TCOON:005:1,2012-07-07T20:00:00Z,27.6346,-97.2370,0.0,6.5,113.0,7.8,'11111222,11111222,11111222' 
TCOON,ioos:station:TCOON:005:1,2012-07-07T21:00:00Z,27.6346,-97.2370,0.0,6.2,111.0,9.4,'11111222,11111222,11111222' 
TCOON,ioos:station:TCOON:005:1,2012-07-07T22:00:00Z,27.6346,-97.2370,0.0,6.9,110.0,9.1,'11111222,11111222,11111222' 
TCOON,ioos:station:TCOON:005:1,2012-07-07T23:00:00Z,27.6346,-97.2370,0.0,7.1,112.0,8.1,'11111222,11111222,11111222' 
TCOON,ioos:station:TCOON:005:1,2012-07-08T00:00:00Z,27.6346,-97.2370,0.0,6.1,116.0,8.5,'11111222,11111222,11111222' 
TCOON,ioos:station:TCOON:005:1,2012-07-08T01:00:00Z,27.6346,-97.2370,0.0,5.2,142.0,7.2,'11111222,11111222,11111222' 
TCOON,ioos:station:TCOON:005:1,2012-07-08T02:00:00Z,27.6346,-97.2370,0.0,6.1,139.0,7.4,'11111222,11111222,11111222' 
TCOON,ioos:station:TCOON:005:1,2012-07-08T03:00:00Z,27.6346,-97.2370,0.0,4.6,138.0,6.8,'11111222,11111222,11111222' 
TCOON,ioos:station:TCOON:005:1,2012-07-08T04:00:00Z,27.6346,-97.2370,0.0,4.6,138.0,7.1,'11111222,11111222,11111222' 
TCOON,ioos:station:TCOON:005:1,2012-07-08T05:00:00Z,27.6346,-97.2370,0.0,4.1,146.0,6.8,'11111222,11111222,11111222' 
TCOON,ioos:station:TCOON:005:1,2012-07-08T06:00:00Z,27.6346,-97.2370,0.0,5.2,153.0,7.8,'11111222,11111222,11111222' 
TCOON,ioos:station:TCOON:005:1,2012-07-08T07:00:00Z,27.6346,-97.2370,0.0,4.4,160.0,7.6,'11111222,11111222,11111222' 
TCOON,ioos:station:TCOON:005:1,2012-07-08T08:00:00Z,27.6346,-97.2370,0.0,3.9,165.0,5.4,'11111222,11111222,11111222' 
TCOON,ioos:station:TCOON:005:1,2012-07-08T09:00:00Z,27.6346,-97.2370,0.0,3.6,175.0,4.5,'11111222,11111222,11111222' 
TCOON,ioos:station:TCOON:005:1,2012-07-08T10:00:00Z,27.6346,-97.2370,0.0,4.3,194.0,5.2,'11111222,11111222,11111222' 
TCOON,ioos:station:TCOON:005:1,2012-07-08T11:00:00Z,27.6346,-97.2370,0.0,3.1,215.0,4.1,'11111222,11111222,11111222' 
TCOON,ioos:station:TCOON:005:1,2012-07-08T12:00:00Z,27.6346,-97.2370,0.0,2.6,229.0,3.9,'11111222,11111222,11111222' 
TCOON,ioos:station:TCOON:005:1,2012-07-08T13:00:00Z,27.6346,-97.2370,0.0,3.2,212.0,3.9,'11111222,11111222,11111222' 
TCOON,ioos:station:TCOON:005:1,2012-07-08T14:00:00Z,27.6346,-97.2370,0.0,2.7,214.0,3.4,'11111222,11111222,11111222' 
TCOON,ioos:station:TCOON:005:1,2012-07-08T15:00:00Z,27.6346,-97.2370,0.0,3.2,217.0,4.0,'11111222,11111222,11111222' 
TCOON,ioos:station:TCOON:005:1,2012-07-08T16:00:00Z,27.6346,-97.2370,0.0,2.2,166.0,3.6,'11111222,11111222,11111222' 
TCOON,ioos:station:TCOON:005:1,2012-07-08T17:00:00Z,27.6346,-97.2370,0.0,4.6,114.0,6.0,'11111222,11111222,11111222' 
TCOON,ioos:station:TCOON:005:1,2012-07-08T18:00:00Z,27.6346,-97.2370,0.0,4.3,133.0,6.7,'11111222,11111222,11111222' 
TCOON,ioos:station:TCOON:005:1,2012-07-08T19:00:00Z,27.6346,-97.2370,0.0,4.6,138.0,8.9,'11111222,11111222,11111222' 
TCOON,ioos:station:TCOON:005:1,2012-07-08T20:00:00Z,27.6346,-97.2370,0.0,5.7,138.0,7.6,'11111222,11111222,11111222' 
TCOON,ioos:station:TCOON:005:1,2012-07-08T21:00:00Z,27.6346,-97.2370,0.0,8.0,128.0,10.4,'11111222,11111222,11111222' 
TCOON,ioos:station:TCOON:005:1,2012-07-08T22:00:00Z,27.6346,-97.2370,0.0,7.5,123.0,10.3,'11111222,11111222,11111222' 
TCOON,ioos:station:TCOON:005:1,2012-07-08T23:00:00Z,27.6346,-97.2370,0.0,8.3,141.0,10.5,'11111222,11111222,11111222' 
TCOON,ioos:station:TCOON:005:1,2012-07-09T00:00:00Z,27.6346,-97.2370,0.0,6.6,133.0,9.1,'11111222,11111222,11111222' 
TCOON,ioos:station:TCOON:005:1,2012-07-09T01:00:00Z,27.6346,-97.2370,0.0,6.7,135.0,8.1,'11111222,11111222,11111222' 
TCOON,ioos:station:TCOON:005:1,2012-07-09T02:00:00Z,27.6346,-97.2370,0.0,5.8,139.0,7.1,'11111222,11111222,11111222' 
TCOON,ioos:station:TCOON:005:1,2012-07-09T03:00:00Z,27.6346,-97.2370,0.0,5.2,140.0,6.9,'11111222,11111222,11111222' 
TCOON,ioos:station:TCOON:005:1,2012-07-09T04:00:00Z,27.6346,-97.2370,0.0,6.3,145.0,8.6,'11111222,11111222,11111222' 
TCOON,ioos:station:TCOON:005:1,2012-07-09T05:00:00Z,27.6346,-97.2370,0.0,5.6,143.0,8.4,'11111222,11111222,11111222' 
TCOON,ioos:station:TCOON:005:1,2012-07-09T06:00:00Z,27.6346,-97.2370,0.0,6.6,146.0,8.6,'11111222,11111222,11111222' 
TCOON,ioos:station:TCOON:005:1,2012-07-09T07:00:00Z,27.6346,-97.2370,0.0,5.7,154.0,7.2,'11111222,11111222,11111222' 
TCOON,ioos:station:TCOON:005:1,2012-07-09T08:00:00Z,27.6346,-97.2370,0.0,5.4,168.0,8.0,'11111222,11111222,11111222' 
TCOON,ioos:station:TCOON:005:1,2012-07-09T09:00:00Z,27.6346,-97.2370,0.0,5.8,174.0,6.9,'11111222,11111222,11111222' 
TCOON,ioos:station:TCOON:005:1,2012-07-09T10:00:00Z,27.6346,-97.2370,0.0,4.2,187.0,5.0,'11111222,11111222,11111222' 
TCOON,ioos:station:TCOON:005:1,2012-07-09T11:00:00Z,27.6346,-97.2370,0.0,4.5,189.0,5.3,'11111222,11111222,11111222' 
TCOON,ioos:station:TCOON:005:1,2012-07-09T12:00:00Z,27.6346,-97.2370,0.0,4.0,189.0,5.3,'11111222,11111222,11111222' 
TCOON,ioos:station:TCOON:005:1,2012-07-09T13:00:00Z,27.6346,-97.2370,0.0,3.4,199.0,4.3,'11111222,11111222,11111222' 